Torna al catalogo

FREGAT R/B

AttivoHEO
NORAD 46806·ROCKET BODY·🇷🇺 Russia

Lanciato Oct 25, 2020 da Plesetsk Cosmodrome

Loading…

Prossimi Passaggi (prossime 24 ore)

TLE

AggiornatoSource: Space-Track

Epoca: Sep 13, 2026, 20:07 UTC

1 46806U 20075B   26256.83887102  .00000019  00000-0  00000-0 0  9996
2 46806  64.5722 192.9283 0054412 128.5055 231.9799  2.08518273 44811

Traccia FREGAT R/B in tempo reale con AllMySat

Download on the App Store